Flag for India Weather past 2 weeks in Jodhpur, Rajasthan, India

Now
81 °F

Haze.


Feels Like: 81 °F
Forecast: 85 / 103 °F
Wind: No wind

Location: Jaipur / Sanganer


UV Index: 7 (High)

Visibility: 1 mi


Pressure: 29.77 "Hg

Humidity: 42%

Dew point: 55 °F

Location of JodhpurLocation

Historic Weather in Jodhpur

°F

Jodhpur temperature yesterday

Maximum temperature yesterday: 99 °F (at 4:00 PM)
Minimum temperature yesterday: 75 °F (at 6:00 AM)
Average temperature yesterday: 88 °F

Past Weeks' High & Low Weather Summary

 TemperatureHumidityPressure
High100 °F (Apr 13, 2:00 PM)83% (Apr 19, 5:30 AM)30.04 "Hg (Apr 19, 5:30 AM)
Low68 °F (Apr 19, 8:00 AM)6% (Apr 12, 2:00 PM)29.53 "Hg (Apr 17, 2:00 PM)
Average85 °F31%29.87 "Hg
* Reported Apr 10 3:00 AM — Apr 25 3:00 AM, Jodhpur, Weather by CustomWeather, © 2014

Note: Actual official high and low records may vary slightly from our data, if they occured in-between our weather recording intervals... More about our weather records

Advertising

Historic Weather Conditions — Data for Previous 24 hours

 ConditionsComfort  
Time TempWeatherWind HumidityBarometerVisibility
3:00 AM
Apr 25
79 °FHaze.No wind48%29.77 "Hg1 mi
2:00 AM81 °FHaze.2 mph45%29.80 "Hg1 mi
1:00 AM82 °FHaze.No wind37%29.80 "Hg1 mi
12:00 AM84 °FHaze.No wind29%29.80 "Hg1 mi
11:00 PM
Apr 24
86 °FHaze.No wind31%29.80 "Hg1 mi
10:00 PM86 °FHaze.No wind33%29.80 "Hg2 mi
9:00 PM90 °FHaze.No wind27%29.80 "Hg2 mi
8:00 PM93 °FHaze.No wind19%29.80 "Hg2 mi
7:00 PM97 °FScattered clouds.6 mph14%29.77 "Hg2 mi
6:00 PM97 °FScattered clouds.6 mph16%29.74 "Hg2 mi
5:00 PM99 °FScattered clouds.10 mph15%29.74 "Hg2 mi
4:00 PM99 °FScattered clouds.6 mph14%29.74 "Hg2 mi
3:00 PM97 °FScattered clouds.13 mph16%29.77 "Hg2 mi
2:00 PM97 °FHaze.12 mph19%29.80 "Hg2 mi
1:00 PM97 °FHaze.5 mph18%29.83 "Hg2 mi
12:00 PM95 °FHaze.7 mph16%29.86 "Hg2 mi
11:00 AM93 °FHaze.6 mph20%29.89 "Hg2 mi
8:00 AM84 °FHaze.No wind33%29.86 "Hg2 mi
7:00 AM79 °FHaze.No wind48%29.86 "Hg2 mi
6:00 AM75 °FPassing clouds.No wind44%29.83 "Hg2 mi
5:00 AM77 °FHaze.No wind42%29.83 "Hg2 mi
4:00 AM81 °FHaze.No wind34%29.80 "Hg2 mi
Weather by CustomWeather, © 2014

See weather overview